Location: Chenault
(47.4114°N, 4.3205°E)
Time: 01:01:36
(UTC+00:00)

Daily predictions for brighter satellites

Satellite Brightness Start Highest point End
(mag) Time Altitude Azimuth Time Altitude Azimuth Time Altitude Azimuth
Cosmos 546 4.5 00:00:12 10° WNW 00:03:58 78° SW 00:03:58 78° SW
ATLAS CENTAUR R/B 3.9 00:02:36 10° NNW 00:04:15 17° NNE 00:06:39 10° ENE
Cosmos 292 Rocket 4.3 00:03:39 35° WSW 00:05:21 52° WNW 00:10:07 10° NNE
STARLINK-1104 4.1 00:04:58 10° WNW 00:08:12 44° WSW 00:08:12 44° WSW
Cosmos 1655 Rocket 4.5 00:07:30 31° SW 00:10:15 52° WNW 00:16:21 10° N
GEOS 3 Rocket 3.7 00:07:39 24° SE 00:10:50 78° NE 00:16:09 10° NW
Cosmos 1726 2.7 00:07:27 10° NNW 00:10:54 43° W 00:10:54 43° W
Cosmos 2058 Rocket 4.0 00:07:57 10° N 00:12:10 42° ENE 00:13:46 30° ESE
STARLINK-1235 4.3 00:09:21 10° NW 00:12:18 39° NNE 00:15:14 10° E
STARLINK-1187 4.4 00:09:47 10° NW 00:12:43 37° NNE 00:15:37 10° E
COSMOS 2455 3.1 00:11:40 39° SSE 00:13:32 53° ESE 00:19:23 10° NE
Meteor 1-29 3.5 00:10:22 10° NNE 00:13:32 46° E 00:13:32 46° E
STARLINK-1144 4.3 00:09:58 10° WNW 00:12:59 39° W 00:12:59 39° W
STARLINK-1191 4.5 00:11:08 10° NW 00:14:03 35° NNE 00:16:57 10° E
Cosmos 2228 2.9 00:10:28 10° N 00:14:45 83° E 00:15:32 59° SSE
Cosmos 2263 4.4 00:12:25 34° SW 00:14:51 65° WNW 00:20:27 10° NNE
STARLINK-1221 4.5 00:12:01 10° NW 00:14:55 36° NNE 00:17:50 10° E
SJ 16-02 4.2 00:13:15 10° NNE 00:15:15 13° NE 00:17:13 10° ENE
STARLINK-1222 4.5 00:12:54 10° NW 00:15:49 36° NNE 00:18:44 10° E
STARLINK-1214 4.4 00:13:49 10° NW 00:16:44 36° NNE 00:19:38 10° E
Meteor 2-15 Rocket 4.4 00:12:18 10° NNW 00:18:28 77° W 00:20:55 39° S
Cosmos 1953 3.3 00:15:39 10° NNW 00:19:15 33° W 00:19:26 32° W
SL-14 R/B 4.3 00:18:39 31° ESE 00:19:17 33° E 00:22:47 10° NNE
IRAS Rocket 4.5 00:17:53 28° SE 00:20:51 66° ENE 00:26:22 10° NNW
Cosmos 1340 Rocket 3.4 00:17:05 10° NNW 00:20:55 43° W 00:21:08 42° WSW
Cosmos 1174 4.2 00:23:33 40° E 00:23:33 40° E 00:26:29 10° NE
Okean 1-7 Rocket 4.2 00:22:03 39° SE 00:23:11 48° E 00:27:32 10° NNE
Cosmos 1300 3.8 00:20:21 10° N 00:23:56 37° ENE 00:25:04 29° ESE
Cosmos 921 Rocket 4.4 00:23:34 24° ESE 00:24:29 26° E 00:28:03 10° NE
BREEZE M DEB (TANK) 3.9 00:26:49 21° E 00:26:49 21° E 00:28:05 10° E
Cosmos 1992 Rocket 4.4 00:25:15 33° WSW 00:27:19 54° WNW 00:32:27 10° NNE
COSMOS 2487 2.4 00:24:03 10° NNW 00:27:18 68° WNW 00:27:18 68° WNW
Cosmos 1833 4.5 00:22:54 10° NW 00:28:20 49° WSW 00:29:45 40° SSW
Cosmos 1626 2.5 00:34:31 47° SE 00:35:00 51° E 00:38:38 10° NNE
STARLINK-60 4.1 00:36:27 33° E 00:36:27 33° E 00:38:32 10° ENE
Cosmos 1656 Rocket 3.9 00:33:52 32° SW 00:36:24 62° WNW 00:41:58 10° NNE
Cosmos 1606 Rocket 3.7 00:33:52 10° NNW 00:38:06 54° W 00:38:48 48° SW
FALCON 9 R/B 3.6 00:38:25 31° S 00:40:17 35° SSE 00:55:31 10° ESE
CZ-4 R/B 4.3 00:39:01 10° N 00:43:43 52° WNW 00:45:23 35° SW
MOZ.5/SAFIR/RUBIN 5/SL-8 4.3 00:44:16 24° SE 00:46:49 54° ENE 00:51:21 10° N
Cosmos 2297 Rocket 3.7 00:42:42 10° NNW 00:47:54 36° NE 00:53:03 10° ESE
Meteor 2-21 4.4 00:45:34 35° SSW 00:48:20 85° W 00:54:34 10° N
SL-4 R/B 2.4 00:49:12 45° SSW 00:50:25 61° SSE 00:55:07 10° ENE
PSLV R/B 4.3 00:47:57 10° N 00:52:23 46° WNW 00:53:53 33° WSW
NOSS 5 (C) 4.4 00:49:17 10° NW 00:52:29 89° SW 00:53:31 45° SE
Cosmos 1437 3.3 00:52:48 42° E 00:52:50 42° E 00:55:43 10° NNE
Cosmos 1674 3.7 00:53:21 31° W 00:53:55 32° WNW 00:57:21 10° N
SL-19 R/B 4.2 00:52:07 10° NNE 00:57:32 90° WSW 01:00:03 34° SSW
ATLAS CENTAUR R/B 1.3 00:56:56 46° SW 00:58:10 90° ESE 01:02:21 10° NE
Cosmos 1777 Rocket 3.9 00:54:28 10° NNW 00:59:41 69° WSW 01:01:54 34° S
Timation 2 Rocket 3.9 00:53:34 10° NNW 01:00:00 86° WSW 01:04:30 19° SSE
SL-16 R/B 2.8 00:56:01 17° SSE 01:00:55 68° ENE 01:07:03 10° N
NOSS 3-4 (A) 3.6 00:57:31 25° WSW 01:01:06 66° NW 01:07:31 10° NE
NOSS 3-4 (C) 3.6 00:57:38 25° WSW 01:01:12 67° NW 01:07:37 10° NE
BREEZE-M R/B 3.6 01:01:07 36° SSE 01:01:24 37° SSE 01:04:29 10° E
Spot 1 4.3 01:00:54 40° SSW 01:02:24 64° WSW 01:07:15 10° NNW
Cosmos 1602 Rocket 4.4 01:01:57 26° SE 01:03:52 42° E 01:07:56 10° NNE
STARLINK-29 3.7 01:04:34 39° ESE 01:04:34 39° ESE 01:07:09 10° ENE
Cosmos 1455 4.2 01:03:10 10° NNE 01:06:16 24° ENE 01:09:21 10° SE
ATLAS 3B R/B 2.7 01:00:26 10° NW 01:07:09 64° WSW 01:12:42 17° SSE
CENTAUR R/B 3.7 01:03:27 10° NW 01:10:50 38° WSW 01:14:47 26° SSW
BREEZE-M DEB (TANK) 1.1 01:12:38 87° ESE 01:12:38 87° ESE 01:14:53 10° ENE
STARLINK-1206 4.5 01:09:13 10° WNW 01:13:17 52° NNE 01:17:20 10° E
Meteor 2-21 Rocket 4.5 01:11:40 31° SSW 01:14:47 70° WNW 01:20:59 10° N
Cosmos 1867 4.2 01:10:29 10° NW 01:15:27 36° WSW 01:16:44 32° SW
Cosmos 1745 Rocket 4.0 01:12:45 28° S 01:16:15 83° E 01:22:25 10° N
Cosmos 1892 Rocket 4.3 01:14:51 31° WSW 01:16:16 40° WNW 01:20:27 10° N
STARLINK-1205 4.4 01:14:12 10° WNW 01:18:17 54° NNE 01:22:21 10° E
RESURS DK-1 2.3 01:19:17 41° SSW 01:20:41 88° NW 01:24:50 10° NNE
STARLINK-1218 4.3 01:19:10 10° WNW 01:23:16 56° NNE 01:27:21 10° E
Cosmos 2227 Rocket 2.9 01:18:06 10° NNW 01:23:41 54° ENE 01:29:13 10° SE
Cosmos 1356 Rocket 3.3 01:19:54 10° NNW 01:24:03 79° W 01:25:49 34° S
Meteor 1-24 Rocket 4.0 01:22:03 29° SW 01:24:31 52° WNW 01:29:48 10° N
Cosmos 2369 Rocket 4.3 01:22:07 10° W 01:26:06 19° NW 01:30:05 10° N
CZ-2D R/B 2.2 01:21:59 10° NNE 01:27:16 73° ESE 01:30:15 26° S
Cosmos 1697 Rocket 4.5 01:23:12 11° SSE 01:27:23 23° E 01:31:42 10° NE
Helios 1B rocket 4.4 01:24:27 10° NNW 01:27:24 19° WNW 01:29:11 15° W
STARLINK-1254 4.2 01:24:10 10° WNW 01:28:17 59° NNE 01:32:22 10° ESE
ADEOS II 3.5 01:25:07 10° NNE 01:29:49 32° E 01:34:07 12° SSE
ATLAS 2AS CENTAUR R/B 3.6 01:23:17 14° WSW 01:30:08 53° NW 01:37:51 10° NE
IKONOS-2 4.4 01:29:56 28° S 01:32:06 78° WSW 01:36:25 10° NNW
CZ-4C R/B 3.6 01:30:46 34° SSW 01:32:24 59° W 01:36:43 10° NNW
STARLINK-1231 4.1 01:29:10 10° WNW 01:33:17 62° NNE 01:37:23 10° ESE
STARLINK-1228 3.0 01:31:45 10° WNW 01:35:02 55° SW 01:38:19 10° SE
STARLINK-1234 2.8 01:33:10 10° WNW 01:36:15 55° SW 01:37:02 40° SSE
Resurs 1-4 Rocket 2.1 01:31:43 10° NNE 01:37:02 89° E 01:40:11 25° SSW
STARLINK-1212 2.7 01:34:31 10° WNW 01:37:38 72° SSW 01:40:43 10° SE
STARLINK-1105 2.7 01:35:00 10° WNW 01:38:05 71° SSW 01:41:09 10° SE
STARLINK-1232 4.0 01:34:08 10° WNW 01:38:17 65° NNE 01:42:23 10° ESE
STARLINK-1209 3.0 01:35:27 10° WNW 01:38:32 50° SW 01:38:42 49° SSW
STARLINK-1247 2.7 01:35:54 10° WNW 01:39:01 70° SSW 01:42:07 10° SE
STARLINK-1227 2.7 01:36:23 10° WNW 01:39:28 69° SSW 01:42:32 10° SE
USA 81 4.1 01:36:19 22° S 01:39:45 79° E 01:45:03 10° N
STARLINK-1226 2.7 01:37:13 10° WNW 01:40:20 68° SSW 01:43:26 10° SE
STARLINK-52 2.8 01:39:41 46° SW 01:40:29 75° SSE 01:43:42 10° ENE
STARLINK-1215 2.7 01:38:10 10° WNW 01:41:16 67° SSW 01:44:22 10° SE
ARIANE 5 R/B 4.3 01:37:41 10° NE 01:41:51 25° E 01:45:57 10° SSE
Cosmos 1758 Rocket 4.2 01:39:23 19° SSE 01:42:13 50° E 01:46:26 10° NNE
STARLINK-1217 2.7 01:39:56 10° WNW 01:43:02 65° SSW 01:46:07 10° SE
STARLINK-1208 3.9 01:39:06 10° WNW 01:43:15 69° NNE 01:47:23 10° ESE
STARLINK-1229 2.7 01:40:51 10° WNW 01:43:57 64° SSW 01:47:03 10° SE
NPP 3.6 01:39:03 10° NNE 01:44:29 88° ESE 01:47:57 23° SSW
STARLINK-1270 2.7 01:41:43 10° WNW 01:44:49 63° SSW 01:47:54 10° SE
STARLINK-1189 2.8 01:43:34 10° WNW 01:46:39 60° SSW 01:49:44 10° SE
STARLINK-1188 2.8 01:44:27 10° WNW 01:47:32 59° SSW 01:50:37 10° SE
STARLINK-1235 3.0 01:45:11 10° WNW 01:48:11 46° SW 01:51:10 10° SE
STARLINK-1271 3.8 01:44:06 10° WNW 01:48:15 72° NNE 01:52:24 10° ESE
STARLINK-1187 2.9 01:45:35 10° WNW 01:48:37 51° SW 01:51:38 10° SE
Cosmos 1898 Rocket 3.8 01:43:39 10° NNW 01:49:00 69° ENE 01:54:17 10° SSE
STARLINK-1191 2.8 01:46:56 10° WNW 01:49:59 56° SSW 01:53:02 10° SE
Starlink 7 placeholder 3.6 01:49:43 24° NW 01:50:06 26° NNW 01:51:51 10° NE
Lacrosse 4 Rocket 3.6 01:46:39 10° NNW 01:50:29 29° NE 01:54:13 10° ESE
Meteor 1-21 Rocket 4.2 01:46:49 21° S 01:50:40 82° E 01:56:23 10° NNE
STARLINK-1221 2.8 01:47:48 10° WNW 01:50:51 55° SSW 01:53:53 10° SE
STARLINK-1222 2.8 01:48:42 10° WNW 01:51:45 54° SW 01:54:47 10° SE
Cosmos 1656 4.0 01:48:20 21° S 01:52:08 62° ESE 01:57:42 10° NNE
STARLINK-1214 2.9 01:49:37 10° WNW 01:52:39 53° SW 01:55:41 10° SE
STARLINK-1154 3.8 01:49:05 10° WNW 01:53:14 77° NNE 01:57:23 10° ESE
CZ-4C R/B 3.4 01:50:43 15° SSE 01:54:07 30° ESE 01:59:04 10° NE
SJ 16-02 1.3 01:50:06 10° NNW 01:54:34 86° ENE 01:59:00 10° SSE
Cosmos 2084 3.5 01:52:18 26° SW 01:54:45 88° NW 01:59:15 10° NE
Cosmos 468 Rocket 4.3 01:52:22 20° S 01:55:53 60° ESE 02:00:57 10° NNE
STARLINK-1197 3.7 01:54:03 10° WNW 01:58:13 81° NNE 02:02:22 10° ESE
Cosmos 1937 Rocket 4.0 01:54:03 10° NNW 01:59:15 61° ENE 02:04:28 10° SE
Cosmos 1300 4.4 01:56:43 10° NW 01:59:18 18° W 02:00:00 17° W
COSMOS 2455 4.0 01:54:47 13° WSW 01:59:43 36° NW 02:05:16 10° NNE
Meteor 2-10 Rocket 3.5 01:56:12 10° NNW 02:01:34 75° W 02:06:01 14° S
Cosmos 921 Rocket 4.1 02:00:21 20° WSW 02:02:38 33° WNW 02:06:34 10° N
STARLINK-1198 3.6 01:59:00 10° WNW 02:03:10 86° NNE 02:07:19 10° ESE
Cosmos 1709 Rocket 3.9 02:01:47 19° SSW 02:06:23 76° W 02:12:32 10° N
STARLINK-1199 3.6 02:04:01 10° WNW 02:08:11 89° SSW 02:12:20 10° ESE
Cosmos 1626 4.4 02:09:03 11° W 02:10:36 13° WNW 02:12:27 10° NW
STARLINK-60 4.1 02:08:52 12° W 02:11:38 40° NNW 02:14:42 10° NE
STARLINK-1210 3.5 02:08:59 10° WNW 02:13:09 84° SSW 02:17:18 10° ESE
STARLINK-1320 3.2 02:14:52 26° SSW 02:16:19 53° SE 02:19:22 10° ENE
Cosmos 2219 3.5 02:11:07 10° NW 02:16:31 46° WSW 02:21:51 10° S
STARLINK-1322 3.1 02:15:11 26° SSW 02:16:39 53° SE 02:19:43 10° ENE
STARLINK-1324 3.1 02:15:32 26° SSW 02:17:00 53° SE 02:20:04 10° ENE
STARLINK-1294 3.1 02:15:47 26° SSW 02:17:17 54° SE 02:20:22 10° ENE
STARLINK-1261 3.1 02:16:09 26° SSW 02:17:39 54° SE 02:20:43 10° ENE
STARLINK-1325 3.1 02:16:30 26° SW 02:18:01 54° SE 02:21:04 10° ENE
STARLINK-1219 3.5 02:13:58 10° WNW 02:18:07 79° SSW 02:22:16 10° SE
STARLINK-1333 3.1 02:16:48 25° SW 02:18:19 55° SSE 02:21:23 10° ENE
STARLINK-1334 3.1 02:17:07 25° SW 02:18:39 55° SSE 02:21:43 10° ENE
STARLINK-1326 3.1 02:17:28 25° SW 02:19:00 56° SSE 02:22:04 10° ENE
STARLINK-1323 3.1 02:17:47 25° SW 02:19:20 56° SSE 02:22:24 10° ENE
Cosmos 1980 Rocket 3.6 02:14:38 10° SSE 02:19:30 31° ESE 02:24:25 10° NE
STARLINK-1338 3.4 02:17:39 23° SW 02:19:34 53° SE 02:22:58 10° ENE
STARLINK-1349 3.1 02:18:06 25° SW 02:19:40 56° SSE 02:22:45 10° ENE
STARLINK-1336 3.1 02:18:28 25° SW 02:20:02 57° SSE 02:23:07 10° ENE
STARLINK-1331 3.1 02:18:45 25° SW 02:20:21 57° SE 02:23:25 10° ENE
STARLINK-1344 3.0 02:19:05 24° SW 02:20:41 57° SSE 02:23:46 10° ENE
STARLINK-1343 3.0 02:19:25 24° SW 02:21:01 58° SSE 02:24:06 10° ENE
STARLINK-1346 3.1 02:19:43 24° SW 02:21:23 59° SSE 02:24:30 10° ENE
STARLINK-1328 3.0 02:20:05 24° SW 02:21:43 59° SSE 02:24:48 10° ENE
STARLINK-1354 3.0 02:20:22 24° SW 02:22:01 59° SSE 02:25:06 10° ENE
Cosmos 1328 3.7 02:19:19 17° S 02:22:21 84° WNW 02:26:22 10° N
STARLINK-1347 3.0 02:20:44 24° SW 02:22:23 59° SSE 02:25:29 10° ENE
CRYOSAT 2 4.4 02:17:33 10° N 02:22:30 87° E 02:27:17 11° S
STARLINK-1357 3.0 02:21:02 24° SW 02:22:42 60° SSE 02:25:48 10° ENE
STARLINK-1335 3.0 02:21:22 23° SW 02:23:03 60° SSE 02:26:08 10° ENE
STARLINK-1211 3.5 02:18:56 10° WNW 02:23:05 74° SSW 02:27:13 10° SE
STARLINK-1327 3.0 02:21:41 23° SW 02:23:22 61° SSE 02:26:28 10° ENE
STARLINK-1371 3.4 02:21:31 21° SW 02:23:35 57° SE 02:27:02 10° ENE
STARLINK-1340 3.0 02:22:01 23° SW 02:23:44 61° SSE 02:26:49 10° ENE
STARLINK-1356 3.0 02:22:21 23° SW 02:24:04 61° SSE 02:27:10 10° ENE
STARLINK-1345 3.0 02:22:41 23° SW 02:24:25 62° SSE 02:27:30 10° ENE
ERS-2 2.7 02:21:08 10° SSE 02:24:44 61° ENE 02:28:23 10° N
STARLINK-1355 3.0 02:22:59 23° SW 02:24:45 62° SSE 02:27:50 10° ENE
STARLINK-1321 3.0 02:23:18 23° SW 02:25:04 63° SSE 02:28:10 10° ENE
STARLINK-1358 2.9 02:23:39 22° SW 02:25:26 63° SSE 02:28:32 10° ENE
STARLINK-1341 3.3 02:23:29 21° SW 02:25:38 60° SSE 02:29:05 10° ENE
STARLINK-1332 2.9 02:23:57 22° SW 02:25:44 63° SSE 02:28:51 10° ENE
STARLINK-1348 2.9 02:24:18 22° SW 02:26:06 64° SSE 02:29:12 10° ENE
STARLINK-1330 2.9 02:24:36 22° SW 02:26:25 64° SSE 02:29:31 10° ENE
STARLINK-1363 2.9 02:24:56 22° SW 02:26:45 65° SSE 02:29:51 10° ENE
STARLINK-1337 2.9 02:25:15 22° SW 02:27:05 65° SSE 02:30:12 10° ENE
STARLINK-1342 2.9 02:25:35 22° SW 02:27:26 66° SSE 02:30:32 10° ENE
STARLINK-1374 3.3 02:25:26 20° SW 02:27:40 62° SSE 02:31:09 10° ENE
STARLINK-1364 2.9 02:25:55 21° SW 02:27:47 66° SSE 02:30:53 10° ENE
STARLINK-1245 3.5 02:23:56 10° WNW 02:28:05 69° SSW 02:32:11 10° SE
STARLINK-1376 2.9 02:26:15 21° SW 02:28:09 66° SE 02:31:14 10° ENE
IRS-1C 4.2 02:22:51 10° NNE 02:28:13 82° ESE 02:33:25 11° SSW
STARLINK-1360 2.9 02:26:30 21° SW 02:28:23 67° SSE 02:31:31 10° ENE
AQUA 4.4 02:24:05 10° N 02:28:37 44° WNW 02:32:11 15° SW
STARLINK-1361 2.9 02:26:56 21° SW 02:28:50 67° SSE 02:31:56 10° ENE
STARLINK-1367 2.9 02:27:10 21° SW 02:29:06 68° SSE 02:32:15 10° ENE
STARLINK-1366 2.9 02:27:33 21° SW 02:29:28 68° SSE 02:32:35 10° ENE
STARLINK-1339 3.3 02:27:27 19° SW 02:29:45 64° SSE 02:33:14 10° ENE
SL-4 R/B 2.9 02:25:31 10° W 02:30:17 58° NNW 02:34:52 10° ENE
CZ-4B R/B 4.2 02:26:16 10° N 02:31:06 43° WNW 02:35:13 14° SW
STARLINK-1377 3.2 02:29:28 19° SW 02:31:50 66° SSE 02:35:20 10° ENE
Cosmos 2297 Rocket 2.6 02:26:43 10° NW 02:32:03 43° WSW 02:37:20 10° S
STARLINK-1233 3.6 02:28:55 10° WNW 02:33:02 64° SSW 02:37:08 10° SE
STARLINK-1353 3.2 02:31:17 18° SW 02:33:42 68° SSE 02:37:10 10° ENE
STARLINK-1143 4.5 02:31:10 10° WNW 02:35:15 53° NNE 02:39:19 10° E
STARLINK-1375 3.2 02:33:04 17° SW 02:35:34 71° SSE 02:39:02 10° ENE
Cosmos 2082 3.6 02:30:12 10° NNW 02:35:53 77° WSW 02:41:29 10° SSE
Cosmos 540 Rocket 3.9 02:32:33 10° S 02:37:35 59° ESE 02:42:38 10° NNE
ATLAS CENTAUR R/B 3.6 02:34:38 10° WNW 02:37:36 18° NW 02:40:27 10° N
Cosmos 990 Rocket 4.3 02:32:50 10° NNW 02:37:52 47° WSW 02:42:51 10° S
STARLINK-1350 3.1 02:35:22 17° SW 02:37:58 74° SSE 02:41:27 10° ENE
CBERS-1 4.3 02:33:01 10° N 02:38:01 54° WNW 02:42:29 13° SW
STARLINK-1204 3.6 02:33:55 10° WNW 02:38:01 60° SW 02:42:05 10° SE
FALCON 9 DEB 3.5 02:35:24 12° WSW 02:38:28 61° NNW 02:41:55 10° ENE
STARLINK-1241 4.4 02:36:09 10° WNW 02:40:15 55° NNE 02:44:20 10° E
STARLINK-29 4.0 02:37:12 10° W 02:40:16 42° NNW 02:43:20 10° NE
OE (NEXTSAT) 4.3 02:36:55 10° W 02:40:22 71° S 02:43:49 10° E
STARLINK-1352 3.2 02:37:40 16° SW 02:40:23 77° SSE 02:43:54 10° ENE
Landsat 5 4.5 02:37:16 10° SSE 02:41:38 55° ENE 02:46:05 10° N
Cosmos 1825 Rocket 4.0 02:38:21 14° SSW 02:41:48 47° WNW 02:46:00 10° N
Cosmos 1455 3.3 02:38:42 10° NNW 02:41:51 26° W 02:44:16 14° SW
Cosmos 2278 4.2 02:36:29 10° S 02:41:59 56° ESE 02:47:31 10° NE
STARLINK-1368 3.1 02:39:45 15° SW 02:42:33 80° SSE 02:46:05 10° ENE
CZ-2D R/B 4.0 02:38:30 10° NNE 02:42:34 57° E 02:46:41 10° S
STARLINK-1238 3.7 02:38:53 10° WNW 02:42:57 55° SW 02:47:00 10° SE
Meteor 1-11 4.3 02:38:38 10° S 02:44:17 88° E 02:49:55 10° NNE
USA 234 4.3 02:38:32 10° ENE 02:44:23 34° SE 02:50:13 10° SSW
STARLINK-1369 3.1 02:41:37 15° WSW 02:44:28 82° SSE 02:47:58 10° ENE
Meteor 1-28 Rocket 3.1 02:40:47 10° SSE 02:44:34 85° WSW 02:48:22 10° NNW
SL-16 R/B 3.7 02:41:07 13° SW 02:45:03 23° W 02:49:49 10° NW
STARLINK-1239 4.3 02:41:08 10° WNW 02:45:14 58° NNE 02:49:20 10° E
ATLAS CENTAUR R/B 2.9 02:43:16 10° WNW 02:46:27 35° SW 02:53:17 10° SSE
STARLINK-1372 3.2 02:43:57 14° WSW 02:46:57 85° SSE 02:50:29 10° ENE
Cosmos 2074 Rocket 4.1 02:41:24 10° S 02:47:42 90° W 02:54:02 10° N
Cosmos 2263 Rocket 3.9 02:42:29 10° NNW 02:47:44 38° NE 02:52:54 10° ESE
STARLINK-1201 3.7 02:43:54 10° WNW 02:47:56 51° SW 02:51:57 10° SE
STARLINK-1378 3.2 02:46:05 13° WSW 02:49:10 88° SE 02:52:42 10° ENE
Cosmos 372 Rocket 4.2 02:44:28 10° NNW 02:49:36 74° ENE 02:54:44 10° SSE
STARLINK-1329 3.2 02:46:35 13° WSW 02:49:41 88° SSE 02:53:15 10° ENE
Cosmos 841 Rocket 3.6 02:44:36 10° SSW 02:49:52 81° ESE 02:55:07 10° NNE
GP-B 4.1 02:46:08 10° NNW 02:50:01 30° WNW 02:53:37 11° SW
STARLINK-1240 4.2 02:46:07 10° WNW 02:50:14 61° NNE 02:54:21 10° ESE
STARLINK-1365 3.2 02:47:17 13° WSW 02:50:25 88° NNW 02:53:57 10° ENE
IRS-1D 4.2 02:45:49 10° N 02:50:52 44° WNW 02:55:45 11° SW
STARLINK-1379 3.2 02:48:13 13° WSW 02:51:23 90° N 02:54:56 10° ENE
STARLINK-1362 3.2 02:48:47 12° WSW 02:51:59 89° NNW 02:55:32 10° ENE
STARLINK-1206 3.8 02:48:54 10° WNW 02:52:53 47° SW 02:56:52 10° SE
Cosmos-2242 3.9 02:49:39 10° NNW 02:53:26 31° W 02:57:11 10° SSW
Cosmos 1869 4.3 02:50:20 10° N 02:54:08 48° ENE 02:57:53 10° SSE
STARLINK-1373 3.2 02:50:59 12° WSW 02:54:16 86° NNW 02:57:51 10° ENE
COBE Rocket 3.9 02:49:43 10° S 02:54:36 70° W 02:59:41 10° NNW
Cosmos 1400 Rocket 2.9 02:50:39 10° NNW 02:54:44 66° W 02:58:50 10° S
STARLINK-1216 4.1 02:51:05 10° WNW 02:55:14 64° NNE 02:59:21 10° ESE
Cosmos 2221 3.1 02:51:14 10° N 02:55:32 61° ENE 02:59:50 10° SSE
STARLINK-1390 3.2 02:52:59 11° WSW 02:56:20 84° NNW 02:59:53 10° ENE
NOSS 7 (E) 4.3 02:53:04 12° SW 02:56:21 86° NW 02:59:27 10° NE
ATLAS 3B R/B 4.3 02:53:45 10° W 02:56:37 13° WSW 02:59:32 10° SW
STARLINK-1205 3.9 02:53:54 10° WNW 02:57:51 44° SW 03:01:47 10° SSE
Cosmos 2184 Rocket 4.0 02:53:03 10° SSW 02:59:14 78° W 03:05:26 10° N
SL-08 R/B 3.7 02:55:43 10° S 03:00:10 42° W 03:04:36 10° NNW
STARLINK-1237 4.1 02:56:05 10° WNW 03:00:14 67° NNE 03:04:21 10° ESE
CZ-4C R/B 3.0 02:56:55 10° SSE 03:00:30 87° WSW 03:04:10 10° NNW
STARLINK-1218 4.0 02:58:53 10° WNW 03:02:47 40° SW 03:06:40 10° SSE
STARLINK-1202 4.0 03:01:04 10° WNW 03:05:14 71° NNE 03:09:22 10° ESE
CZ-2D R/B 3.8 03:03:08 10° NNW 03:06:46 19° WNW 03:10:22 10° WSW
Cosmos 2227 Rocket 3.2 03:02:43 10° NW 03:07:24 27° WSW 03:12:04 10° SSW
STARLINK-1254 4.1 03:03:54 10° WNW 03:07:45 37° SW 03:11:35 10° SSE
Cosmos 1763 Rocket 4.1 03:03:56 10° SW 03:08:47 41° WNW 03:13:37 10° N
ADEOS II 2.8 03:04:42 10° N 03:09:35 39° WNW 03:14:26 10° SW
Cosmos 1697 Rocket 2.9 03:05:15 10° SW 03:10:51 63° WNW 03:16:31 10° NNE
Cosmos 2150 Rocket 4.1 03:06:25 10° NNW 03:11:39 86° ENE 03:16:48 10° SSE
STARLINK-1231 4.2 03:08:57 10° WNW 03:12:43 35° SW 03:16:29 10° SSE
Cosmos 1315 Rocket 3.0 03:10:52 10° N 03:14:48 76° ENE 03:18:42 10° SSE
STARLINK-1246 3.8 03:11:01 10° WNW 03:15:11 79° NNE 03:19:20 10° ESE
Resurs 1-4 Rocket 4.0 03:13:00 10° NNW 03:16:09 16° NW 03:19:18 10° W
CZ-2C R/B 2.7 03:12:48 10° NNE 03:16:31 87° ESE 03:20:14 10° SSW
STARLINK-52 4.5 03:13:52 10° WNW 03:16:50 33° NNW 03:19:48 10° NE
SL-16 R/B 4.1 03:12:13 10° SSE 03:16:57 28° ESE 03:21:40 10° NE
MSX 4.3 03:11:43 10° NNE 03:17:28 63° ESE 03:23:09 10° S
STARLINK-1232 4.3 03:13:58 10° WNW 03:17:40 32° SW 03:21:22 10° SSE
STARLINK-1224 3.7 03:15:59 10° WNW 03:20:10 84° NNE 03:24:19 10° ESE
H-2A R/B 2.4 03:16:52 10° S 03:21:00 45° W 03:25:16 10° NNW
ARIANE 5 R/B 3.0 03:16:20 10° N 03:21:11 47° WNW 03:25:59 10° SW
